User: anonymous   Login
Location: Summit Observatory
(39.5293°N, 75.7290°W)
Time: 18:45:40
(UTC-04:00)
Language:

YUBILEINY - Orbit

View from above orbital plane
View from above orbital plane
View from above satellite
View from above satellite

Ground track
Ground track

The orbit data is extracted from the following two-line orbital elements,

1 32953U 08025A   19112.50090306  .00000020  00000-0  75656-4 0  9999
2 32953  82.5062 180.3293 0017932 251.8508 108.0614 12.43088819495208
Epoch (UTC): 22 April 2019 12:01:18
Eccentricity: 0.0017932
inclination: 82.5062°
perigee height: 1479 km
apogee height: 1507 km
right ascension of ascending node: 180.3293°
argument of perigee: 251.8508°
revolutions per day: 12.43088819
mean anomaly at epoch: 108.0614°
orbit number at epoch: 49520

The dashed part of the orbit path shows where the satellite is in the earth's shadow,  

DLR